Weather History for KOQT - May, 2013

Change the Weather History Date:

Friday, May 3, 2013

  Actual Average (KTYS) Record (KTYS)
Temperature  
Mean Temperature 65 °F 64 °F  
Max Temperature 77 °F 75 °F 90 °F (1894)
Min Temperature 55 °F 52 °F 37 °F (1988)
Degree Days  
Heating Degree Days 0 3  
Month to date heating degree days 11  
Since 1 July heating degree days 3586  
Cooling Degree Days 0 2  
Month to date cooling degree days 6  
Year to date cooling degree days 43  
Growing Degree Days 15 (Base 50)    
Moisture  
Dew Point 52 °F    
Average Humidity 65    
Maximum Humidity 93    
Minimum Humidity 44    
Precipitation  
Precipitation 0.01 in 0.15 in 1.77 in (2010)
Month to date precipitation 0.45  
Year to date precipitation 17.38  
Snow  
Snow 0.00 in 0.00 in - ()
Month to date snowfall 0.0  
Since 1 July snowfall 6.5  
Snow Depth -    
Sea Level Pressure  
Sea Level Pressure 30.03 in    
Wind  
Wind Speed 3 mph (East)    
Max Wind Speed 10 mph    
Max Gust Speed 18 mph    
Visibility 10 miles    
Events Rain    
T = Trace of Precipitation, MM = Missing Value Source: NWS Daily Summary

Daily Weather History Graph

Daily Weather History Graph

Search for Another Location

Airport or City:

Trip Planner

Search our weather history database for the weather conditions in past years. The results will help you decide how hot, cold, wet, or windy it might be!

Date:

Astronomy

May. 03, 2013 Rise Set
Actual Time 6:41 AM EDT 8:26 PM EDT
Civil Twilight 6:14 AM EDT 8:53 PM EDT
Nautical Twilight 5:40 AM EDT 9:27 PM EDT
Astronomical Twilight 5:05 AM EDT 10:02 PM EDT
Moon 2:54 AM EDT (5/3) 2:30 PM EDT (5/3)
Length of Visible Light 14h 39m
Length of Day
13h 44m
Last Quarter, 37% of the Moon is Illuminated
May 3
Last Quarter
May 9
New
May 18
First Quarter
May 25
Full
May 31
Last Quarter

Hourly Weather History & Observations

Time (EDT) Temp. Dew Point Humidity Pressure Visibility Wind Dir Wind Speed Gust Speed Precip Events Conditions
12:53 AM 63.0 °F 55.0 °F 75% 30.12 in 10.0 mi Calm Calm - N/A   Mostly Cloudy
1:53 AM 60.1 °F 55.0 °F 83% 30.10 in 10.0 mi Calm Calm - N/A   Clear
2:53 AM 59.0 °F 54.0 °F 83% 30.08 in 10.0 mi Calm Calm - N/A   Mostly Cloudy
3:53 AM 59.0 °F 53.1 °F 81% 30.08 in 10.0 mi Calm Calm - N/A   Partly Cloudy
4:53 AM 57.0 °F 53.1 °F 87% 30.08 in 10.0 mi Calm Calm - N/A   Clear
5:53 AM 55.0 °F 53.1 °F 93% 30.07 in 10.0 mi Calm Calm - N/A   Clear
6:53 AM 55.0 °F 52.0 °F 89% 30.09 in 10.0 mi Calm Calm - N/A   Clear
7:53 AM 57.0 °F 53.1 °F 87% 30.09 in 10.0 mi Calm Calm - N/A   Clear
8:53 AM 62.1 °F 54.0 °F 75% 30.08 in 10.0 mi ENE 4.6 mph - N/A   Clear
9:53 AM 64.9 °F 54.0 °F 68% 30.07 in 10.0 mi East 5.8 mph - N/A   Clear
10:53 AM 69.1 °F 53.1 °F 57% 30.06 in 10.0 mi ENE 8.1 mph - N/A   Clear
11:53 AM 69.1 °F 53.1 °F 57% 30.05 in 10.0 mi Variable 6.9 mph - N/A   Clear
12:53 PM 73.0 °F 54.0 °F 51% 30.04 in 10.0 mi ENE 8.1 mph - N/A   Scattered Clouds
1:53 PM 73.0 °F 52.0 °F 48% 30.00 in 10.0 mi East 8.1 mph - N/A   Scattered Clouds
2:53 PM 75.0 °F 52.0 °F 44% 29.98 in 10.0 mi Variable 3.5 mph - N/A   Partly Cloudy
3:53 PM 75.0 °F 52.0 °F 44% 29.97 in 10.0 mi Variable 6.9 mph - N/A   Mostly Cloudy
4:53 PM 69.1 °F 55.0 °F 61% 29.98 in 6.0 mi Calm Calm - 0.01 in Rain Light Rain
5:53 PM 70.0 °F 52.0 °F 53% 29.98 in 10.0 mi South 10.4 mph 18.4 mph 0.00 in   Mostly Cloudy
6:53 PM 70.0 °F 50.0 °F 49% 29.98 in 10.0 mi Variable 4.6 mph - N/A   Clear
7:53 PM 68.0 °F 48.9 °F 50% 29.98 in 10.0 mi East 4.6 mph - N/A   Scattered Clouds
8:53 PM 66.0 °F 46.0 °F 48% 29.98 in 10.0 mi ENE 6.9 mph - N/A   Overcast
9:53 PM 64.9 °F 48.0 °F 54% 29.98 in 10.0 mi ENE 6.9 mph - N/A   Overcast
10:53 PM 64.9 °F 48.0 °F 54% 29.98 in 10.0 mi East 5.8 mph - N/A   Mostly Cloudy
11:53 PM 63.0 °F 48.0 °F 58% 29.97 in 10.0 mi East 5.8 mph - N/A   Mostly Cloudy